Details for EasyJet at LFBO




Go Back


Latest METAR
Local Time

LFBO 221100Z AUTO VRB03KT CAVOK 22/13 Q1024 NOSIG
22/09/2018, 13:21:25

Description
Results
EasyJet Logo
Number of Pilots based at LFBO
0 Pilots Based here
Number of EasyJet Flights Departed from LFBO
0 Flights Departed
Number of EasyJet Flights Arrived at LFBO
2 Flights Arrived
Number of EasyJet Schedules Departing from LFBO
66 Schedules
Number of EasyJet Schedules Arriving at LFBO
66 Schedules
Number of EasyJet Schedules Departing from LFBO availible today
21 Schedules Today
Number of EasyJet Schedules Arriving at LFBO availible today
20 Schedules Today
Average Landing Rate at LFBO
-218 fpm
EasyJet Average Landing Rate at LFBO
-182 fpm
Total Fuel Purchased at LFBO by EasyJet
0.00 kgs / 0.00 lbs

Pilots Based at LFBO


Pilot ID
Pilot Name
Pilot Rank
No. of Flights
No. of Flying Hours
There are no pilots assigned to this hub!   Will you be the first?
Content